sat.trackr.live / text

‹ back to catalog

STARLINK-6323

NORAD 56524 · 2023-065X

PAYLOAD ACTIVE UNKNOWN

§ Identity

Operator
Country
US
Launch date
2023-05-14
Launch site
AFETR
Launch vehicle
Mass (kg)
RCS (m²)

Purposes: comms

External: N2YO · Heavens-Above · Gunter

§ Orbital elements

Epoch: 2026-09-20T12:38:57.164064Z

Period
94.27 min
Inclination
43.0036°
Eccentricity
0.0001411
Mean motion
15.27577296 rev/d
Perigee alt
482.1 km
Apogee alt
484.0 km
Semi-major
6,861.2 km
B*
2.1601e-5
RAAN
192.4733°
Arg perigee
273.8747°
Mean anomaly
86.1944°
Rev number
18,639

§ Raw data

STARLINK-63231 56524U 23065X   26263.52705051  .00000332  00000+0  21601-4 0  99932 56524  43.0036 192.4733 0001411 273.8747  86.1944 15.27577296186394

JSON: /api/v1/satellites/56524 · /tle

For live sub-satellite position, see the globe view (requires WebGL).

§ Visibility from observer

Set your observer location to see the next 7 days of passes ≥ 10°. The values pass through the URL so the page stays shareable.

No JS? Fill the form by hand. The geolocation button needs JavaScript.